[Date Prev][Date Next][Thread Prev][Thread Next] - [Date Index][Thread Index][Author Index]

2 Line ISS Keps 8-13



ISS
1 25544U 98067A   04226.31395815  .00017550  00000-0  14255-3 0  4341
2 25544  51.6336  34.1424 0005732 111.0103 322.7205 15.70800750327295
----
Via the sarex mailing list at AMSAT.ORG courtesy of AMSAT-NA.
To unsubscribe, send "unsubscribe sarex" to Majordomo@amsat.org



AMSAT Top AMSAT Home